IZ1DSJ Weather Reports


time (UTC)temp
C
wind
direction
speed
KPH
gust
KPH
rain 1hr
cm
rain 24hr
cm
rain mn
cm
humidity
%
barometer
mb
20260508013515 12 0.0 0.0 0.00 0.00 0.00 78 1011.5
20260508012516 12 0.0 0.0 0.00 0.00 0.00 77 1011.5
20260508011515 12 0.0 0.0 0.00 0.00 0.00 78 1011.6
20260508010516 12 0.0 0.0 0.00 0.00 0.00 77 1011.6
20260508005517 13 0.0 0.0 0.00 0.00 0.00 76 1011.6
20260508004535 13 0.0 0.0 0.00 0.00 0.00 75 1011.6
20260508003518 13 0.0 0.0 0.00 0.00 0.00 74 1011.8
20260508002518 13 0.0 0.0 0.00 0.00 0.00 76 1011.9
20260508001516 12 0.0 0.0 0.00 0.00 0.00 76 1011.9
20260508000518 12 0.0 0.0 0.00 0.00 0.00 77 1012.0
20260507235517 12 0.0 0.0 0.00 0.00 0.00 78 1012.1
20260507234518 12 0.0 0.0 0.00 0.00 0.00 78 1012.1
20260507233517 12 0.0 0.0 0.00 0.00 0.00 77 1012.1
20260507232518 12 0.0 0.0 0.00 0.00 0.00 78 1012.1
20260507231518 12 0.0 0.0 0.00 0.00 0.00 79 1012.1
20260507230518 12 0.0 0.0 0.00 0.00 0.00 79 1012.1
20260507225518 12 0.0 0.0 0.00 0.00 0.00 78 1012.1
20260507224517 12 0.0 0.0 0.00 0.00 0.00 79 1012.1
20260507223517 12 0.0 0.0 0.00 0.00 0.00 79 1012.0
20260507222518 12 0.0 0.0 0.00 0.00 0.00 78 1012.1
20260507221517 12 0.0 0.0 0.00 0.00 0.00 78 1012.1
20260507220517 13 0.0 0.0 0.00 0.00 0.00 77 1012.0
20260507215517 13 0.0 0.0 0.00 0.00 0.00 76 1011.9
20260507214516 13 0.0 0.0 0.00 0.00 0.00 76 1012.0
20260507213517 13 0.0 0.0 0.00 0.00 0.00 74 1012.0
20260507212517 14 0.0 0.0 0.00 0.00 0.00 73 1011.9
20260507211517 13 0.0 0.0 0.00 0.00 0.00 73 1011.9
20260507210517 13 0.0 0.0 0.00 0.00 0.00 75 1011.8
20260507205516 13 0.0 0.0 0.00 0.00 0.00 74 1011.7
20260507204517 13 0.0 0.0 0.00 0.00 0.00 73 1011.6
20260507203517 13 0.0 0.0 0.00 0.00 0.00 74 1011.5
20260507202517 13 0.0 0.0 0.00 0.00 0.00 73 1011.4
20260507201517 13 0.0 0.0 0.00 0.00 0.00 73 1011.3
20260507200536 13 0.0 0.0 0.00 0.00 0.00 74 1010.9
20260507195517 13 0.0 0.0 0.00 0.00 0.00 74 1010.9
20260507194517 14 0.0 0.0 0.00 0.00 0.00 74 1010.9
20260507193517 14 0.0 0.0 0.00 0.00 0.00 74 1010.7
20260507192516 14 0.0 0.0 0.00 0.00 0.00 73 1010.6
20260507191517 14 0.0 0.0 0.00 0.00 0.00 73 1010.5
20260507190517 14 0.0 0.0 0.00 0.00 0.00 73 1010.4
20260507185516 14 0.0 0.0 0.00 0.00 0.00 72 1010.3
20260507184517 14 0.0 0.0 0.00 0.00 0.00 72 1010.2
20260507183516 14 0.0 0.0 0.00 0.00 0.00 73 1010.0
20260507182517 14 0.0 0.0 0.00 0.00 0.00 74 1009.9
20260507181517 14 0.0 0.0 0.00 0.00 0.00 73 1009.8
20260507180536 15 0.0 0.0 0.00 0.00 0.00 73 1009.7
20260507175516 15 0.0 0.0 0.00 0.00 0.00 72 1009.7
20260507174517 15 0.0 0.0 0.00 0.00 0.00 71 1009.6
20260507173516 15 0.0 0.0 0.00 0.00 0.00 69 1009.7
20260507172536 16 0.0 0.0 0.00 0.00 0.00 67 1009.6
20260507171516 17 0.0 0.0 0.00 0.00 0.00 65 1009.6
20260507170516 18 0.0 0.0 0.00 0.00 0.00 58 1009.7
20260507165536 18 0.0 0.0 0.00 0.00 0.00 52 1009.7
20260507164516 18 0.0 0.0 0.00 0.00 0.00 51 1009.6
20260507163516 19 0.0 0.0 0.00 0.00 0.00 49 1009.7
20260507162517 19 0.0 0.0 0.00 0.00 0.00 49 1009.4
20260507161516 19 0.0 0.0 0.00 0.00 0.00 49 1009.3
20260507160516 19 0.0 0.0 0.00 0.00 0.00 49 1009.2
20260507155517 19 0.0 0.0 0.00 0.00 0.00 49 1009.2
20260507154516 19 0.0 0.0 0.00 0.00 0.00 49 1009.3
20260507153516 19 0.0 0.0 0.00 0.00 0.00 50 1009.2
20260507152536 19 0.0 0.0 0.00 0.00 0.00 50 1009.3
20260507151516 19 0.0 0.0 0.00 0.00 0.00 50 1009.3
20260507150516 18 0.0 0.0 0.00 0.00 0.00 52 1009.4
20260507145516 18 0.0 0.0 0.00 0.00 0.00 50 1009.5
20260507144516 19 0.0 0.0 0.00 0.00 0.00 51 1009.6
20260507143517 19 0.0 0.0 0.00 0.00 0.00 50 1009.6
20260507142517 19 0.0 0.0 0.00 0.00 0.00 50 1009.7
20260507141516 19 0.0 0.0 0.00 0.00 0.00 50 1009.7
20260507140516 19 0.0 0.0 0.00 0.00 0.00 51 1009.7
20260507135516 19 0.0 0.0 0.00 0.00 0.00 53 1009.8
20260507134517 18 0.0 0.0 0.00 0.00 0.00 53 1010.0
20260507133517 18 0.0 0.0 0.00 0.00 0.00 54 1010.1
20260507132516 18 0.0 0.0 0.00 0.00 0.00 51 1010.2
20260507131516 18 0.0 0.0 0.00 0.00 0.00 51 1010.3
20260507130536 18 0.0 0.0 0.00 0.00 0.00 51 1010.4
20260507125516 18 0.0 0.0 0.00 0.00 0.00 49 1010.4
20260507124516 18 0.0 0.0 0.00 0.00 0.00 53 1010.4
20260507123517 18 0.0 0.0 0.00 0.00 0.00 56 1010.5
20260507122517 18 0.0 0.0 0.00 0.00 0.00 57 1010.5
20260507121516 17 0.0 0.0 0.00 0.00 0.00 59 1010.6
20260507120517 17 0.0 0.0 0.00 0.00 0.00 58 1010.7
20260507115516 17 0.0 0.0 0.00 0.00 0.00 59 1010.7
20260507114516 17 0.0 0.0 0.00 0.00 0.00 59 1010.7
20260507113536 17 0.0 0.0 0.00 0.00 0.00 58 1010.8
20260507112517 17 0.0 0.0 0.00 0.00 0.00 60 1010.8
20260507111516 17 0.0 0.0 0.00 0.00 0.00 61 1010.8
20260507110516 17 0.0 0.0 0.00 0.00 0.00 60 1011.0
20260507105536 17 0.0 0.0 0.00 0.00 0.00 61 1010.9
20260507104516 17 0.0 0.0 0.00 0.00 0.00 62 1011.0
20260507103517 17 0.0 0.0 0.00 0.00 0.00 64 1011.0
20260507102516 16 0.0 0.0 0.00 0.00 0.00 66 1011.0
20260507101516 16 0.0 0.0 0.00 0.00 0.00 67 1011.1
20260507100516 16 0.0 0.0 0.00 0.00 0.00 67 1011.1
20260507095516 16 0.0 0.0 0.00 0.00 0.00 68 1011.1
20260507094516 16 0.0 0.0 0.00 0.00 0.00 68 1011.2
20260507093536 15 0.0 0.0 0.00 0.00 0.00 69 1011.2
20260507092517 15 0.0 0.0 0.00 0.00 0.00 69 1011.2
20260507091516 15 0.0 0.0 0.00 0.00 0.00 69 1011.2
20260507090516 15 0.0 0.0 0.00 0.00 0.00 69 1011.0
20260507085516 15 0.0 0.0 0.00 0.00 0.00 69 1010.9
20260507084516 15 0.0 0.0 0.00 0.00 0.00 70 1010.9
20260507083516 15 0.0 0.0 0.00 0.00 0.00 70 1010.9
20260507082516 14 0.0 0.0 0.00 0.00 0.00 71 1010.9
20260507081516 13 0.0 0.0 0.00 0.00 0.00 73 1010.8
20260507080516 13 0.0 0.0 0.00 0.00 0.00 75 1010.9
20260507075516 12 0.0 0.0 0.00 0.00 0.00 78 1010.9
20260507074516 11 0.0 0.0 0.00 0.00 0.00 79 1010.9
20260507073516 10 0.0 0.0 0.00 0.00 0.00 80 1010.9
20260507072536 10 0.0 0.0 0.00 0.00 0.00 80 1010.8
20260507071517 9 0.0 0.0 0.00 0.00 0.00 80 1010.8
20260507070516 9 0.0 0.0 0.00 0.00 0.00 80 1010.8
20260507065516 9 0.0 0.0 0.00 0.00 0.00 80 1010.7
20260507064516 8 0.0 0.0 0.00 0.00 0.00 81 1010.7
20260507063517 8 0.0 0.0 0.00 0.00 0.00 81 1010.7
20260507062516 8 0.0 0.0 0.00 0.00 0.00 81 1010.7
20260507061516 8 0.0 0.0 0.00 0.00 0.00 81 1010.7
20260507060516 8 0.0 0.0 0.00 0.00 0.00 82 1010.6
20260507055517 8 0.0 0.0 0.00 0.00 0.00 81 1010.5
20260507054516 8 0.0 0.0 0.00 0.00 0.00 82 1010.5
20260507053536 8 0.0 0.0 0.00 0.00 0.00 82 1010.3
20260507052516 7 0.0 0.0 0.00 0.00 0.00 81 1010.1
20260507051516 7 0.0 0.0 0.00 0.00 0.00 81 1010.1
20260507050516 7 0.0 0.0 0.00 0.00 0.00 81 1010.0
20260507045536 7 0.0 0.0 0.00 0.00 0.00 81 1009.8
20260507044515 7 0.0 0.0 0.00 0.00 0.00 81 1009.7
20260507043516 7 0.0 0.0 0.00 0.00 0.00 81 1009.6
20260507042516 7 0.0 0.0 0.00 0.00 0.00 81 1009.5
20260507041516 7 0.0 0.0 0.00 0.00 0.00 81 1009.3
20260507040516 7 0.0 0.0 0.00 0.00 0.00 81 1009.2
20260507035536 7 0.0 0.0 0.00 0.00 0.00 81 1009.2
20260507034516 8 0.0 0.0 0.00 0.00 0.00 81 1009.1
20260507033516 8 0.0 0.0 0.00 0.00 0.00 81 1009.0
20260507032516 8 0.0 0.0 0.00 0.00 0.00 81 1009.0
20260507031516 8 0.0 0.0 0.00 0.00 0.00 81 1009.0
20260507030516 8 0.0 0.0 0.00 0.00 0.00 81 1009.1
20260507025515 8 0.0 0.0 0.00 0.00 0.00 81 1009.1
20260507024515 8 0.0 0.0 0.00 0.00 0.00 81 1009.2
20260507023516 8 0.0 0.0 0.00 0.00 0.00 81 1009.3
20260507022516 8 0.0 0.0 0.00 0.00 0.00 81 1009.3
20260507021535 8 0.0 0.0 0.00 0.00 0.00 81 1009.2
20260507020537 9 0.0 0.0 0.00 0.00 0.00 81 1009.1
20260507015516 9 0.0 0.0 0.00 0.00 0.00 81 1009.3
20260507014515 9 0.0 0.0 0.00 0.00 0.00 81 1009.2